This demonstration page uses our WeatherBlox Daily Observations layout. Learn more.

Left ArrowRight Arrow

40.92501, -98.34201

Hourly Observations for May 13, 2020

Temp ( °F °C ) Dew Point ( °F °C ) Humidity (%) Winds ( mph kmh ) Pressure ( in mb ) Visibility ( mi km ) Precip ( " mm )
12:53 am 00:53 Cloudy 50 10 41 5 71 71 S 12 19 30.04 1017 10 16 0.00 0.00
1:09 am 01:09 Cloudy 50 10 41 5 71 71 S 15 24 30.03 1017 10 16 0.00 0.00
1:53 am 01:53 Cloudy 50 10 41 5 71 71 SSE 10 17 30.04 1017 10 16 0.00 0.00
2:53 am 02:53 Cloudy 49 9.4 41 5 74 74 SSE 15 24 30.01 1016 10 16 0.00 0.00
3:53 am 03:53 Cloudy 48 8.9 41 5 77 77 S 16 26 29.98 1015 9 14 0.00 0.00
4:08 am 04:08 Cloudy 48 8.9 42 5.6 80 80 SSE 16 26 29.98 1015 8 13 0.00 0.00
4:22 am 04:22 Cloudy 48 8.9 41 5 77 77 SSE 13 20 29.97 1015 10 16 0.00 0.00
4:53 am 04:53 Cloudy 48 8.9 42 5.6 80 80 SSE 12 19 29.97 1015 10 16 0.00 0.00
5:21 am 05:21 Cloudy 48 8.9 42 5.6 80 80 SSE 10 17 29.97 1015 10 16 0.00 0.00
5:53 am 05:53 Cloudy 48 8.9 42 5.6 80 80 SSE 14 22 29.96 1015 10 16 0.00 0.00
6:53 am 06:53 Cloudy with Haze 48 8.9 43 6.1 83 83 SSE 14 22 29.95 1014 6 10 0.00 0.00
7:10 am 07:10 Cloudy with Mist and Fog 47 8.3 44 6.7 90 90 SE 10 17 29.96 1015 3 4 0.00 0.00
7:27 am 07:27 Cloudy with Mist and Fog 47 8.3 44 6.7 90 90 SSE 10 17 29.95 1014 3 5 0.00 0.00
7:53 am 07:53 Cloudy with Mist and Fog 47 8.3 44 6.7 90 90 SSE 12 19 29.95 1014 3 4 0.00 0.00
8:46 am 08:46 Cloudy with Light Rain 47 8.3 44 6.7 90 90 SE 13 20 29.94 1014 2 2 0.00 0.00
8:53 am 08:53 Cloudy with Mist and Fog 47 8.3 44 6.7 90 90 SSE 12 19 29.94 1014 2 2 0.00 0.00
9:31 am 09:31 Cloudy with Mist and Fog 48 8.9 44 6.7 86 86 SSE 14 22 29.93 1013 3 5 0.00 0.00
9:48 am 09:48 Cloudy with Mist and Fog 48 9 45 7 87 87 SSE 16 26 29.92 1013 2 3 0.00 0.00
9:53 am 09:53 Cloudy with Mist and Fog 48 8.9 45 7.2 89 89 SSE 16 26 29.92 1013 3 4 0.00 0.00
10:53 am 10:53 Cloudy with Mist and Fog 49 9.4 46 7.8 90 90 SE 16 26 29.91 1013 3 5 0.00 0.00
11:24 am 11:24 Cloudy with Mist and Fog 50 10 46 7.8 86 86 SSE 18 30 29.88 1012 3 4 0.00 0.00
11:28 am 11:28 Cloudy with Mist and Fog 50 10 46 7.8 86 86 SSE 15 24 29.88 1012 3 5 0.00 0.00
11:53 am 11:53 Cloudy with Mist and Fog 50 10 46 7.8 86 86 SSE 20 31 29.89 1012 5 8 0.00 0.00
12:00 pm 12:00 Cloudy with Mist and Fog 50 10 46 7.8 86 86 SSE 17 28 29.88 1012 6 10 0.00 0.00
12:07 pm 12:07 Cloudy with Mist and Fog 50 10 46 7.8 86 86 SSE 18 30 29.87 1011 6 10 0.00 0.00
12:53 pm 12:53 Cloudy with Mist and Fog 50 10 46 7.8 86 86 SSE 18 30 29.87 1012 4 6 0.00 0.00
1:18 pm 13:18 Cloudy 51 10.6 47 8.3 86 86 SSE 17 28 29.83 1010 7 11 0.00 0.00
1:30 pm 13:30 Cloudy 52 11.1 47 8.3 83 83 SSE 18 30 29.83 1010 10 16 0.00 0.00
1:53 pm 13:53 Cloudy 53 11.7 48 8.9 83 83 S 18 30 29.83 1010 10 16 0.00 0.00
2:53 pm 14:53 Cloudy 54 12.2 49 9.4 83 83 S 9 15 29.84 1010 10 16 0.00 0.00
3:53 pm 15:53 Cloudy 55 12.8 50 10 83 83 SSE 10 17 29.81 1010 7 11 0.00 0.00
4:53 pm 16:53 Cloudy 55 12.8 50 10 83 83 SSW 7 11 29.81 1009 9 14 0.00 0.00
5:53 pm 17:53 Cloudy 55 12.8 51 10.6 87 87 SW 6 9 29.81 1009 8 13 0.00 0.00
6:53 pm 18:53 Cloudy with Mist and Fog 55 12.8 51 10.6 87 87 SW 5 7 29.80 1009 5 8 0.00 0.00
7:45 pm 19:45 Cloudy with Mist and Fog 55 12.8 52 11.1 90 90 Calm 29.77 1008 2 3 0.00 0.00
7:53 pm 19:53 Cloudy with Mist and Fog 55 12.8 52 11.1 90 90 Calm 29.80 1009 2 3 0.00 0.00
8:50 pm 20:50 Cloudy with Mist and Fog 54 12 52 11 94 94 Calm 29.79 1009 3 5 0.00 0.00
8:53 pm 20:53 Cloudy with Mist and Fog 54 12.2 52 11.1 93 93 Calm 29.81 1010 3 5 0.00 0.00
9:34 pm 21:34 Cloudy with Mist and Fog 54 12.2 52 11.1 93 93 ESE 3 6 29.80 1009 4 6 0.00 0.00
9:53 pm 21:53 Cloudy with Mist and Fog 54 12.2 52 11.1 93 93 NE 5 7 29.84 1010 4 6 0.00 0.00
10:08 pm 22:08 Cloudy with Mist and Fog 54 12.2 52 11.1 93 93 NNE 6 9 29.81 1010 4 6 0.00 0.00
10:53 pm 22:53 Cloudy 54 12.2 51 10.6 90 90 NE 5 7 29.85 1011 7 11 0.00 0.00
11:53 pm 23:53 Cloudy with Mist and Fog 53 11.7 51 10.6 93 93 NE 3 6 29.84 1011 5 8 0.00 0.00

Powered by AerisWeather